Location: Unspecified
(0.0000°N, 0.0000°E)
Time: 11:55:45
(UTC+00:00)

Vanguard 1 Rocket - Pass Details

Date: 10 December 2017
Orbit: 652 x 4225 km, 34.3° (Epoch: 16 July)

Event Time Altitude Azimuth Distance (km) Brightness Sun altitude
Rises 16:25:40 0° 277° (W) 3,792 11.6 20.0°
Reaches altitude 10° 16:28:35 10° 293° (WNW) 3,186 10.9 19.4°
Maximum altitude 16:34:46 23° 342° (NNW) 3,078 10.2 17.9°
Drops below altitude 10° 16:44:25 10° 28° (NNE) 5,165 10.8 15.7°
Sets 16:51:13 0° 41° (NE) 6,910 11.3 14.2°
